Location: Erdweis
(48.5167°N, 15.3500°E)
Time: 15:57:53
(UTC+00:00)

Abrixas rocket - Pass Details

Date: 18 September 2020
Orbit: 328 x 335 km, 48.4° (Epoch: 28 October)

Event Time Altitude Azimuth Distance (km) Brightness Sun altitude
Rises 17:59:15 0° 253° (WSW) 2,092 6.9 -9.8°
Reaches altitude 10° 18:01:15 10° 251° (WSW) 1,255 5.6 -10.2°
Maximum altitude 18:04:02 69° 168° (SSE) 355 1.7 -10.6°
Enters shadow 18:05:55 18° 86° (E) 890 3.3 -10.9°
